Find Starlink 32004

NORAD ID: 60151 Int'l Des: 2024-120 Owner: SPXS Country: US Constellation: starlink operational
LEOCIRCULAR

現在のビュー

3D地球を読み込み中...

About Starlink 32004

Starlink 32004 (NORAD 60151) is a starlink constellation satellite (v2 mini) launched Jun 27, 2024 by SPXS of US. It operates in LEO, CIRCULAR orbit with a mass of 730.00 kg.

次回通過

Passes for default location (London). Set your location on the main map for personalized predictions.

高度履歴

Loading altitude history...

軌道要素

1 60151U 24120S 26263.93209778 -.00000779 00000-0 -11911-4 0 9998
2 60151 53.1585 129.8497 0001200 86.7902 273.3238 15.34397084126390
Epoch: Sep 20, 2026 • Age: 9 hours

現在のステータス

高度 481.4 km
遠地点 / 近地点 N/A
速度 7.62 km/s
衛星直下点 -51.58°S, 91.71°W
打ち上げ日 Jun 27, 2024
運用期間 2.2 years
タイプ internet

技術仕様

分類 Payload
質量 730.00 kg
乾燥質量 700.00 kg
長さ 0.30 m
スパン 29.00 m
形状 ? Box + pan
製造者 SPXS
バスタイプ Starlink V2M
フェーズステータス In Orbit
所有者/国 SPXS/US

Most Searched